Location: Newark
(53.3333°N, 83.7500°E)
Time: 08:42:10
(UTC+00:00)

A-11 Canister half - All Passes

Search period start: 20 November 2019 00:00
Search period end: 30 November 2019 00:00
Orbit: 1527 x 1682 km, 47.3° (Epoch: 19 November)

Date Brightness Start Highest point End Pass type
(mag) Time Alt. Az. Time Alt. Az. Time Alt. Az.
20 Nov - 04:19:29 10° S 04:25:47 19° SE 04:31:59 10° E daylight
20 Nov - 06:19:42 10° SW 06:28:55 44° SSE 06:37:53 10° E daylight
20 Nov - 08:23:21 10° WSW 08:33:03 62° S 08:42:26 10° E daylight
20 Nov - 10:27:59 10° W 10:37:19 52° SSW 10:46:21 10° SE daylight
20 Nov - 12:33:16 10° W 12:40:44 26° SW 12:48:03 10° S visible
21 Nov - 03:58:12 10° SSE 04:04:14 18° SE 04:10:12 10° E daylight
21 Nov - 05:58:08 10° SW 06:07:19 43° SSE 06:16:16 10° E daylight
21 Nov - 08:01:42 10° WSW 08:11:26 62° S 08:20:50 10° E daylight
21 Nov - 10:06:20 10° W 10:15:43 53° SSW 10:24:48 10° SE daylight
21 Nov - 12:11:33 10° W 12:19:12 28° SW 12:26:40 10° SSE visible
22 Nov - 03:36:57 10° SSE 03:42:42 17° SE 03:48:23 10° E daylight
22 Nov - 05:36:35 10° SW 05:45:43 42° SSE 05:54:38 10° E daylight
22 Nov - 07:40:04 10° WSW 07:49:48 61° S 07:59:14 10° E daylight
22 Nov - 09:44:40 10° W 09:54:07 54° SSW 10:03:16 10° SE daylight
22 Nov - 11:49:51 10° W 11:57:39 29° SW 12:05:16 10° SSE visible
23 Nov - 03:15:43 10° SSE 03:21:10 16° SE 03:26:33 10° E daylight
23 Nov - 05:15:02 10° SW 05:24:07 41° SSE 05:33:00 10° E daylight
23 Nov - 07:18:26 10° WSW 07:28:11 61° S 07:37:38 10° E daylight
23 Nov - 09:23:01 10° W 09:32:31 55° SSW 09:41:42 10° ESE daylight
23 Nov - 11:28:08 10° W 11:36:06 30° SW 11:43:52 10° SSE visible
24 Nov - 02:54:33 10° SSE 02:59:38 15° SE 03:04:40 10° E daylight
24 Nov - 04:53:30 10° SSW 05:02:32 40° SSE 05:11:22 10° E daylight
24 Nov - 06:56:48 10° WSW 07:06:34 61° S 07:16:02 10° E daylight
24 Nov - 09:01:22 10° W 09:10:55 56° SSW 09:20:08 10° ESE daylight
24 Nov - 11:06:27 10° W 11:14:33 31° SW 11:22:27 10° SSE visible
25 Nov - 02:33:25 10° SSE 02:38:06 14° SE 02:42:46 10° E daylight
25 Nov - 04:31:59 10° SSW 04:40:57 38° SSE 04:49:44 10° E daylight
25 Nov - 06:35:10 10° WSW 06:44:57 60° S 06:54:25 10° E daylight
25 Nov - 08:39:42 10° W 08:49:18 57° SSW 08:58:34 10° ESE daylight
25 Nov - 10:44:45 10° W 10:53:00 32° SW 11:01:02 10° SSE visible
26 Nov - 02:12:21 10° SSE 02:16:35 13° SE 02:20:47 10° E daylight
26 Nov - 04:10:27 10° SSW 04:19:21 37° SE 04:28:05 10° E daylight
26 Nov - 06:13:33 10° WSW 06:23:19 60° S 06:32:49 10° E daylight
26 Nov - 08:18:03 10° W 08:27:41 58° SSW 08:37:01 10° ESE daylight
26 Nov - 10:23:04 10° W 10:31:26 34° SW 10:39:35 10° SSE daylight
26 Nov - 12:32:35 10° WSW 12:33:52 10° WSW 12:35:11 10° SW visible
27 Nov - 01:51:21 10° SE 01:55:03 13° SE 01:58:44 10° ESE daylight
27 Nov - 03:48:56 10° SSW 03:57:46 36° SE 04:06:26 10° E daylight
27 Nov - 05:51:54 10° WSW 06:01:41 59° SSE 06:11:12 10° E daylight
27 Nov - 07:56:24 10° W 08:06:05 59° SSW 08:15:26 10° ESE daylight
27 Nov - 10:01:22 10° W 10:09:53 35° SW 10:18:09 10° SSE daylight
27 Nov - 12:09:51 10° WSW 12:12:23 11° WSW 12:14:55 10° SW visible
28 Nov - 01:30:30 10° SE 01:33:32 12° ESE 01:36:33 10° ESE visible
28 Nov - 03:27:26 10° SSW 03:36:11 35° SE 03:44:46 10° E daylight
28 Nov - 05:30:17 10° WSW 05:40:04 58° SSE 05:49:35 10° E daylight
28 Nov - 07:34:44 10° W 07:44:28 59° SSW 07:53:51 10° ESE daylight
28 Nov - 09:39:41 10° W 09:48:18 36° SW 09:56:41 10° SSE daylight
28 Nov - 11:47:33 10° WSW 11:50:53 12° WSW 11:54:11 10° SW visible
29 Nov - 01:09:53 10° SE 01:12:01 11° ESE 01:14:08 10° ESE visible
29 Nov - 03:05:56 10° SSW 03:14:36 34° SE 03:23:08 10° E daylight
29 Nov - 05:08:39 10° WSW 05:18:26 58° SSE 05:27:59 10° E daylight
29 Nov - 07:13:04 10° W 07:22:51 60° S 07:32:17 10° ESE daylight
29 Nov - 09:18:00 10° W 09:26:44 37° SW 09:35:13 10° SSE daylight
29 Nov - 11:25:26 10° W 11:29:23 13° SW 11:33:17 10° SSW visible
